| time (UTC) | temp F | wind direction | speed MPH | gust MPH | rain 1hr in | rain 24hr in | rain mn in | humidity % | barometer mb |
| 20260901190048 | 70 | 241 | 3.0 | 9.0 | 0.00 | 0.00 | 0.00 | 58 | 1016.0 |
| 20260901184528 | 68 | 139 | 2.0 | 9.0 | 0.00 | 0.00 | 0.00 | 59 | 1016.1 |
| 20260901183030 | 68 | 130 | 4.0 | 13.0 | 0.00 | 0.00 | 0.00 | 59 | 1016.2 |
| 20260901181526 | 68 | 104 | 2.0 | 6.0 | 0.00 | 0.00 | 0.00 | 61 | 1016.1 |
| 20260901180023 | 67 | 183 | 1.0 | 6.0 | 0.00 | 0.00 | 0.00 | 62 | 1016.1 |
| 20260901174532 | 66 | 75 | 6.0 | 11.0 | 0.00 | 0.00 | 0.00 | 62 | 1016.1 |
| 20260901173022 | 66 | 70 | 5.0 | 8.0 | 0.00 | 0.00 | 0.00 | 63 | 1016.2 |
| 20260901171524 | 65 | 142 | 5.0 | 12.0 | 0.00 | 0.00 | 0.00 | 65 | 1016.0 |
| 20260901170015 | 64 | 115 | 1.0 | 7.0 | 0.00 | 0.00 | 0.00 | 68 | 1015.8 |
| 20260901164515 | 63 | 16 | 1.0 | 11.0 | 0.00 | 0.00 | 0.00 | 68 | 1015.8 |
| 20260901163021 | 63 | 118 | 0.0 | 8.0 | 0.00 | 0.00 | 0.00 | 69 | 1015.8 |
| 20260901161511 | 62 | 143 | 5.0 | 12.0 | 0.00 | 0.00 | 0.00 | 70 | 1015.7 |
| 20260901160006 | 62 | 137 | 3.0 | 9.0 | 0.00 | 0.00 | 0.00 | 71 | 1015.5 |
| 20260901154515 | 62 | 81 | 0.0 | 10.0 | 0.00 | 0.00 | 0.00 | 72 | 1015.4 |
| 20260901153003 | 62 | 120 | 5.0 | 10.0 | 0.00 | 0.00 | 0.00 | 72 | 1015.0 |
| 20260901151502 | 61 | 129 | 4.0 | 10.0 | 0.00 | 0.00 | 0.00 | 73 | 1014.9 |
| 20260901150108 | 61 | 134 | 3.0 | 8.0 | 0.00 | 0.00 | 0.00 | 73 | 1014.9 |
| 20260901144557 | 60 | 160 | 4.0 | 8.0 | 0.00 | 0.00 | 0.00 | 74 | 1014.7 |
| 20260901143107 | 60 | 127 | 3.0 | 6.0 | 0.00 | 0.00 | 0.00 | 75 | 1014.5 |
| 20260901141605 | 60 | 126 | 3.0 | 7.0 | 0.00 | 0.00 | 0.00 | 75 | 1014.2 |
| 20260901140047 | 60 | 113 | 3.0 | 10.0 | 0.00 | 0.00 | 0.00 | 75 | 1014.0 |
| 20260901134543 | 59 | 127 | 5.0 | 11.0 | 0.00 | 0.00 | 0.00 | 76 | 1014.0 |
| 20260901133051 | 59 | 110 | 5.0 | 9.0 | 0.00 | 0.00 | 0.00 | 77 | 1013.8 |
| 20260901131538 | 59 | 131 | 5.0 | 12.0 | 0.00 | 0.00 | 0.00 | 77 | 1013.6 |
| 20260901130037 | 59 | 111 | 2.0 | 9.0 | 0.00 | 0.00 | 0.00 | 77 | 1013.4 |
| 20260901124537 | 59 | 116 | 3.0 | 7.0 | 0.00 | 0.00 | 0.00 | 77 | 1013.5 |
| 20260901123036 | 59 | 124 | 2.0 | 9.0 | 0.00 | 0.00 | 0.00 | 77 | 1013.5 |
| 20260901121535 | 59 | 103 | 3.0 | 7.0 | 0.00 | 0.00 | 0.00 | 76 | 1013.6 |
| 20260901120036 | 59 | 91 | 2.0 | 8.0 | 0.00 | 0.00 | 0.00 | 76 | 1013.5 |
| 20260901114530 | 59 | 84 | 3.0 | 8.0 | 0.00 | 0.00 | 0.00 | 76 | 1013.2 |
| 20260901113029 | 59 | 135 | 1.0 | 8.0 | 0.00 | 0.00 | 0.00 | 77 | 1013.2 |
| 20260901111528 | 58 | 148 | 1.0 | 7.0 | 0.00 | 0.00 | 0.00 | 77 | 1013.1 |
| 20260901110028 | 58 | 127 | 3.0 | 7.0 | 0.00 | 0.00 | 0.00 | 77 | 1013.2 |
| 20260901104541 | 58 | 118 | 3.0 | 8.0 | 0.00 | 0.00 | 0.00 | 77 | 1013.0 |
| 20260901103025 | 58 | 130 | 5.0 | 11.0 | 0.00 | 0.00 | 0.00 | 77 | 1012.9 |
| 20260901101524 | 58 | 111 | 4.0 | 10.0 | 0.00 | 0.00 | 0.00 | 78 | 1012.9 |
| 20260901100021 | 58 | 100 | 3.0 | 8.0 | 0.00 | 0.00 | 0.00 | 78 | 1012.9 |
| 20260901094520 | 58 | 127 | 2.0 | 10.0 | 0.00 | 0.00 | 0.00 | 78 | 1012.9 |
| 20260901093017 | 58 | 117 | 4.0 | 10.0 | 0.00 | 0.00 | 0.00 | 78 | 1013.0 |
| 20260901091518 | 58 | 79 | 4.0 | 11.0 | 0.00 | 0.00 | 0.00 | 78 | 1013.0 |
| 20260901090018 | 58 | 117 | 5.0 | 8.0 | 0.00 | 0.00 | 0.00 | 78 | 1013.1 |
| 20260901084510 | 58 | 172 | 3.0 | 7.0 | 0.00 | 0.00 | 0.00 | 78 | 1013.2 |
| 20260901083009 | 58 | 122 | 4.0 | 8.0 | 0.00 | 0.00 | 0.00 | 78 | 1013.2 |
| 20260901081507 | 58 | 135 | 3.0 | 14.0 | 0.00 | 0.00 | 0.00 | 78 | 1013.1 |
| 20260901080006 | 58 | 108 | 5.0 | 11.0 | 0.00 | 0.00 | 0.00 | 78 | 1013.1 |
| 20260901074502 | 58 | 126 | 4.0 | 8.0 | 0.00 | 0.00 | 0.00 | 78 | 1013.1 |
| 20260901073100 | 58 | 128 | 3.0 | 10.0 | 0.00 | 0.00 | 0.00 | 78 | 1013.0 |
| 20260901071617 | 58 | 129 | 2.0 | 8.0 | 0.00 | 0.00 | 0.00 | 78 | 1012.9 |
| 20260901070055 | 59 | 136 | 3.0 | 10.0 | 0.00 | 0.00 | 0.00 | 77 | 1012.9 |
| 20260901064554 | 59 | 132 | 3.0 | 8.0 | 0.00 | 0.00 | 0.00 | 77 | 1012.9 |
| 20260901063053 | 59 | 114 | 3.0 | 10.0 | 0.00 | 0.00 | 0.00 | 77 | 1012.8 |
| 20260901061555 | 59 | 142 | 2.0 | 9.0 | 0.00 | 0.00 | 0.00 | 76 | 1012.8 |
| 20260901060050 | 60 | 97 | 3.0 | 7.0 | 0.00 | 0.00 | 0.00 | 76 | 1012.6 |
| 20260901054550 | 60 | 124 | 3.0 | 9.0 | 0.00 | 0.00 | 0.00 | 76 | 1012.5 |
| 20260901053050 | 60 | 101 | 3.0 | 9.0 | 0.00 | 0.00 | 0.00 | 76 | 1012.6 |
| 20260901051549 | 60 | 120 | 3.0 | 9.0 | 0.00 | 0.00 | 0.00 | 75 | 1012.6 |
| 20260901050048 | 61 | 112 | 4.0 | 9.0 | 0.00 | 0.00 | 0.00 | 75 | 1012.6 |
| 20260901044546 | 61 | 120 | 4.0 | 11.0 | 0.00 | 0.00 | 0.00 | 74 | 1012.5 |
| 20260901043107 | 62 | 115 | 2.0 | 9.0 | 0.00 | 0.00 | 0.00 | 73 | 1012.4 |
| 20260901041545 | 62 | 130 | 4.0 | 7.0 | 0.00 | 0.00 | 0.00 | 73 | 1012.3 |
| 20260901040051 | 63 | 86 | 2.0 | 9.0 | 0.00 | 0.00 | 0.00 | 72 | 1012.0 |
| 20260901034553 | 63 | 108 | 2.0 | 6.0 | 0.00 | 0.00 | 0.00 | 71 | 1011.8 |
| 20260901033102 | 64 | 144 | 2.0 | 7.0 | 0.00 | 0.00 | 0.00 | 70 | 1011.5 |
| 20260901031603 | 65 | 120 | 1.0 | 7.0 | 0.00 | 0.00 | 0.00 | 69 | 1011.3 |
| 20260901030046 | 66 | 91 | 3.0 | 9.0 | 0.00 | 0.00 | 0.00 | 67 | 1011.1 |
| 20260901024641 | 67 | 135 | 0.0 | 4.0 | 0.00 | 0.00 | 0.00 | 64 | 1010.9 |
| 20260901023042 | 68 | 68 | 0.0 | 6.0 | 0.00 | 0.00 | 0.00 | 62 | 1010.8 |
| 20260901021540 | 69 | 192 | 0.0 | 6.0 | 0.00 | 0.00 | 0.00 | 59 | 1010.6 |
| 20260901020039 | 71 | 143 | 1.0 | 9.0 | 0.00 | 0.00 | 0.00 | 57 | 1010.4 |
| 20260901014545 | 72 | 134 | 0.0 | 4.0 | 0.00 | 0.00 | 0.00 | 55 | 1010.2 |
| 20260901013045 | 74 | 130 | 1.0 | 6.0 | 0.00 | 0.00 | 0.00 | 53 | 1010.2 |
| 20260901011538 | 75 | 90 | 0.0 | 7.0 | 0.00 | 0.00 | 0.00 | 52 | 1010.1 |
| 20260901010037 | 76 | 120 | 1.0 | 9.0 | 0.00 | 0.00 | 0.00 | 51 | 1010.2 |
| 20260901004535 | 77 | 243 | 0.0 | 5.0 | 0.00 | 0.00 | 0.00 | 50 | 1010.2 |
| 20260901003036 | 78 | 360 | 1.0 | 5.0 | 0.00 | 0.00 | 0.00 | 50 | 1010.2 |
| 20260901001550 | 78 | 36 | 0.0 | 10.0 | 0.00 | 0.00 | 0.00 | 51 | 1010.2 |
| 20260901000033 | 79 | 210 | 0.0 | 3.0 | 0.00 | 0.00 | 0.00 | 50 | 1010.2 |
| 20260831234535 | 79 | 214 | 1.0 | 7.0 | 0.00 | 0.00 | 0.00 | 49 | 1010.2 |
| 20260831233033 | 79 | 148 | 0.0 | 5.0 | 0.00 | 0.00 | 0.00 | 49 | 1010.2 |
| 20260831231530 | 79 | 96 | 0.0 | 3.0 | 0.00 | 0.00 | 0.00 | 49 | 1010.5 |
| 20260831230029 | 79 | 142 | 2.0 | 5.0 | 0.00 | 0.00 | 0.00 | 48 | 1010.7 |
| 20260831224527 | 79 | 80 | 1.0 | 10.0 | 0.00 | 0.00 | 0.00 | 49 | 1010.9 |
| 20260831223027 | 79 | 120 | 0.0 | 7.0 | 0.00 | 0.00 | 0.00 | 49 | 1010.9 |
| 20260831221525 | 80 | 99 | 0.0 | 4.0 | 0.00 | 0.00 | 0.00 | 48 | 1011.0 |
| 20260831220024 | 79 | 82 | 1.0 | 5.0 | 0.00 | 0.00 | 0.00 | 47 | 1011.2 |
| 20260831214523 | 79 | 105 | 3.0 | 7.0 | 0.00 | 0.00 | 0.00 | 47 | 1011.2 |
| 20260831213022 | 79 | 286 | 0.0 | 8.0 | 0.00 | 0.00 | 0.00 | 48 | 1011.3 |
| 20260831211520 | 78 | 104 | 1.0 | 8.0 | 0.00 | 0.00 | 0.00 | 49 | 1011.4 |
| 20260831210021 | 78 | 156 | 0.0 | 6.0 | 0.00 | 0.00 | 0.00 | 49 | 1011.6 |
| 20260831204515 | 77 | 91 | 0.0 | 4.0 | 0.00 | 0.00 | 0.00 | 51 | 1011.7 |
| 20260831203014 | 76 | 114 | 1.0 | 6.0 | 0.00 | 0.00 | 0.00 | 51 | 1011.8 |
| 20260831201518 | 75 | 80 | 0.0 | 6.0 | 0.00 | 0.00 | 0.00 | 52 | 1011.9 |
| 20260831200012 | 75 | 278 | 0.0 | 6.0 | 0.00 | 0.00 | 0.00 | 53 | 1012.1 |
| 20260831194514 | 74 | 63 | 1.0 | 9.0 | 0.00 | 0.00 | 0.00 | 53 | 1012.2 |
| 20260831193011 | 75 | 153 | 0.0 | 7.0 | 0.00 | 0.00 | 0.00 | 54 | 1012.4 |
| 20260831191523 | 74 | 81 | 2.0 | 7.0 | 0.00 | 0.00 | 0.00 | 54 | 1012.4 |